User: anonymous   Login
Location: Chatham
(39.6760°N, 89.7040°W)
Time: 18:14:03
(UTC-06:00)
Language:

NOSS 3-1 (C) - Orbit

View from above orbital plane
View from above orbital plane
View from above satellite
View from above satellite

Ground track
Ground track

The orbit data is extracted from the following two-line orbital elements,

1 26907U 01040C   16332.68072187 0.00000040  00000-0  50242-4 0    07
2 26907  63.4128 183.6527 0349000 358.6516   1.3484 13.41261027    09
Epoch (UTC): 27 November 2016 16:20:14
Eccentricity: 0.0349000
inclination: 63.4128°
perigee height: 843 km
apogee height: 1366 km
right ascension of ascending node: 183.6527°
argument of perigee: 358.6516°
revolutions per day: 13.41261027
mean anomaly at epoch: 1.3484°
orbit number at epoch: 0

The dashed part of the orbit path shows where the satellite is in the earth's shadow,  

DLR